Simultaneous Nadir Overpasses (SNOs) Predictions

Prediction of SNOs between FY3D and TERRA Satellite Orbit:

Table of predicted SNOs for the next 14.0 days since TLE Epoch: 1/14/2023
Index Date (FY3D) Time (FY3D) Lat,Lon (FY3D) SZA (FY3D ) Date (TERRA) Time (TERRA) Lat,Lon (TERRA) SZA (TERRA ) Distance(km) Time Diff (sec)
1 01/14/2023 15:55:24 72.71, -59.07 93.90 01/14/2023 15:55:45 72.71, -58.97 93.89 3.16 21
2 01/14/2023 16:46:07 -72.60, 108.47 86.23 01/14/2023 16:45:10 -72.62, 108.51 86.21 2.32 57
3 01/17/2023 03:59:38 -72.74, -60.15 86.54 01/17/2023 04:00:25 -72.73, -60.12 86.56 1.40 47
4 01/17/2023 04:50:22 72.61, 107.41 93.33 01/17/2023 04:49:49 72.63, 107.35 93.34 2.56 33
5 01/19/2023 16:03:53 72.76, -61.24 92.98 01/19/2023 16:05:03 72.75, -61.25 92.97 1.24 70
6 01/19/2023 16:54:37 -72.69, 106.22 87.10 01/19/2023 16:54:28 -72.67, 106.25 87.13 2.79 9
7 01/19/2023 17:45:09 71.96, -85.01 92.15 01/19/2023 17:44:02 72.03, -87.26 92.24 77.46 67
8 01/22/2023 04:58:52 72.73, 105.11 92.40 01/22/2023 04:59:05 72.71, 105.14 92.37 2.74 13
9 01/22/2023 05:49:35 -72.61, -87.32 87.74 01/22/2023 05:48:30 -72.63, -87.35 87.72 2.66 65
10 01/24/2023 17:03:05 -72.77, 104.01 88.15 01/24/2023 17:03:42 -72.75, 104.04 88.18 2.42 37
11 01/24/2023 17:53:49 72.66, -88.46 91.73 01/24/2023 17:53:05 72.69, -88.42 91.76 3.17 44
12 01/27/2023 05:07:19 72.78, 102.96 91.24 01/27/2023 05:08:18 72.77, 102.90 91.22 2.55 59
13 01/27/2023 05:58:03 -72.70, -89.57 88.86 01/27/2023 05:57:43 -72.70, -89.58 88.86 0.74 20



Historial Predications of SNOs between FY3D and TERRA
